Flag for Canada Weather past 2 weeks in Peterborough, Ontario, Canada

Now
43 °F

Mostly cloudy.


Feels Like: 40 °F
Forecast: 42 / 69 °F
Wind: 5 mph from North

Location: Peterborough Airport


UV Index: 3 (Moderate)

Visibility: 9 mi


Pressure: 30.06 "Hg

Humidity: 81%

Dew point: 37 °F

Location of PeterboroughLocation

Historic Weather in Peterborough

°F

Peterborough temperature yesterday

Maximum temperature yesterday: 57 °F (at 4:00 PM)
Minimum temperature yesterday: 28 °F (at 6:00 AM)
Average temperature yesterday: 44 °F

Past Weeks' High & Low Weather Summary

 TemperatureHumidityPressure
High70 °F (Apr 14, 10:50 AM)100% (Apr 6, 7:00 AM)30.64 "Hg (Apr 6, 7:00 AM)
Low19 °F (Apr 16, 5:00 AM)26% (Apr 19, 6:00 PM)29.34 "Hg (Apr 8, 10:00 AM)
Average41 °F73%30.05 "Hg
* Reported Apr 6 4:00 AM — Apr 21 4:00 AM, Peterborough, Weather by CustomWeather, © 2014

Note: Actual official high and low records may vary slightly from our data, if they occured in-between our weather recording intervals... More about our weather records

Advertising

Historic Weather Conditions — Data for Previous 24 hours

 ConditionsComfort  
Time TempWeatherWind HumidityBarometerVisibility
4:00 AM
Apr 21
41 °FOvercast.2 mph81%30.08 "Hg9 mi
3:00 AM39 °FPartly cloudy.No wind93%30.09 "Hg9 mi
2:00 AM39 °FPassing clouds.No wind87%30.10 "Hg9 mi
1:00 AM39 °FPassing clouds.2 mph87%30.13 "Hg9 mi
12:00 AM41 °FPartly cloudy.2 mph87%30.15 "Hg9 mi
11:00 PM
Apr 20
45 °FPassing clouds.2 mph71%30.17 "Hg9 mi
10:00 PM45 °FPartly cloudy.No wind76%30.19 "Hg9 mi
9:00 PM48 °FPartly sunny.2 mph54%30.20 "Hg9 mi
8:00 PM54 °FPartly sunny.2 mph35%30.22 "Hg9 mi
7:00 PM55 °FPassing clouds.6 mph36%30.23 "Hg9 mi
6:00 PM55 °FScattered clouds.7 mph33%30.25 "Hg9 mi
5:00 PM57 °FScattered clouds.10 mph31%30.27 "Hg9 mi
4:00 PM57 °FOvercast.12 mph27%30.29 "Hg9 mi
3:00 PM55 °FSunny.9 mph33%30.31 "Hg9 mi
2:00 PM55 °FSunny.12 mph28%30.34 "Hg9 mi
1:00 PM54 °FSunny.10 mph35%30.36 "Hg9 mi
12:00 PM52 °FSunny.7 mph38%30.38 "Hg9 mi
11:00 AM50 °FSunny.10 mph40%30.41 "Hg9 mi
10:00 AM48 °FSunny.9 mph50%30.43 "Hg9 mi
9:00 AM41 °FSunny.3 mph76%30.45 "Hg9 mi
8:00 AM34 °FSunny.3 mph93%30.46 "Hg9 mi
7:00 AM28 °FClear.No wind100%30.46 "Hg9 mi
6:00 AM28 °FClear.No wind100%30.45 "Hg8 mi
5:00 AM30 °FIce fog.No wind100%30.45 "Hg6 mi
Weather by CustomWeather, © 2014

See weather overview